Regional Weather Roundup
Issued by NWS

Home | Current Version | Previous Version | Graphics & Text | Print | Product List | Glossary On
Versions: 1 2 3 4 5 6 7 8 9 10 11 12 13 14 15 16 17 18 19 20 21 22 23 24 25 26 27 28 29 30 31 32 33 34 35 36 37 38 39 40 41 42 43 44 45 46 47 48 49 50
000
ASUS43 KLSX 301157
RWRMO

WEATHER SUMMARY FOR MISSOURI
NATIONAL WEATHER SERVICE SPRINGFIELD MO
700 AM CDT SAT APR 30 2016

NOTE: "FAIR" INDICATES FEW OR NO CLOUDS BELOW 12,000 FEET WITH NO
       SIGNIFICANT WEATHER AND/OR OBSTRUCTIONS TO VISIBILITY.
       CURRENT SKY AND/OR WEATHER CONDITIONS ARE NOT AVAILABLE FOR
       CHILLICOTHE AND FARMINGTON.

MOZ001>031-035>038-043-044-053-054-301300-
...NORTHERN AND WESTERN MISSOURI...

CITY           SKY/WX    TMP DP  RH WIND       PRES   REMARKS
KANSAS CTY INT LGT RAIN  56  54  93 E8        29.65S
6HR MIN TEMP:  52; 6HR MAX TEMP:  57; 6HR PCP:  0.44;

KANSAS C DTWN  LGT RAIN  59  57  94 CALM      29.64R
LEE`S SUMMIT   LGT RAIN  59  57  93 SE10      29.65R
6HR MIN TEMP:  56; 6HR MAX TEMP:  59; 6HR PCP:  0.17;

ST JOSEPH      LGT RAIN  52  50  93 E8        29.66R
6HR MIN TEMP:  50; 6HR MAX TEMP:  52; 6HR PCP:  0.36;

CHILLICOTHE      N/A     53  51  93 E6        29.72F
6HR MIN TEMP:  52; 6HR MAX TEMP:  53; 6HR PCP:  0.12;

KIRKSVILLE     CLOUDY    50  48  93 E17       29.75F FOG

$$
MOZ066>068-077>081-088>096-101>105-301300-
...SOUTHWEST MISSOURI...

CITY           SKY/WX    TMP DP  RH WIND       PRES   REMARKS
SPRINGFIELD    CLOUDY    63  60  90 S12       29.68R
6HR MIN TEMP:  61; 6HR MAX TEMP:  63; 6HR PCP:  0.13;

JOPLIN         CLOUDY    63  61  93 S12       29.67R
6HR MIN TEMP:  60; 6HR MAX TEMP:  63; 6HR PCP: TRACE;

BRANSON        CLOUDY    63  63 100 S6        29.71R

$$
MOZ032>034-039>042-045>050-055>058-069>072-301300-
...CENTRAL MISSOURI...

CITY           SKY/WX    TMP DP  RH WIND       PRES   REMARKS
COLUMBIA       NOT AVBL
JEFFERSON CITY CLOUDY    59  57  93 E10       29.71R
6HR MIN TEMP:  58; 6HR MAX TEMP:  59; 6HR PCP:  0.93;

ROLLA          CLOUDY    59  57  93 E6        29.69R
6HR MIN TEMP:  56; 6HR MAX TEMP:  59; 6HR PCP:  0.39;

SEDALIA        CLOUDY    60  57  89 SE12      29.69S
6HR MIN TEMP:  58; 6HR MAX TEMP:  60; 6HR PCP:  0.08;

WARRENSBURG    CLOUDY    59  55  88 E12       29.65S

$$
MOZ051-052-059>065-301300-
...EAST CENTRAL MISSOURI...

CITY           SKY/WX    TMP DP  RH WIND       PRES   REMARKS
ST LOUIS INTL  LGT RAIN  59  56  89 E16       29.80F FOG
6HR MIN TEMP:  59; 6HR MAX TEMP:  59; 6HR PCP:  0.61;


$$
MOZ072>076-082>087-097>100-106>115-301300-
...SOUTH CENTRAL AND SOUTHEAST MISSOURI...

CITY           SKY/WX    TMP DP  RH WIND       PRES   REMARKS
CAPE GIRARDEAU LGT RAIN  60  59  96 E9        29.83F FOG
6HR MIN TEMP:  59; 6HR MAX TEMP:  61; 6HR PCP:  0.76;

POPLAR BLUFF   RAIN      62  60  93 SE10G17   29.78F FOG
6HR MIN TEMP:  60; 6HR MAX TEMP:  62; 6HR PCP:  1.09;

WEST PLAINS    LGT RAIN  61  58  90 SE8       29.74R
6HR MIN TEMP:  59; 6HR MAX TEMP:  61;


$$



USA.gov is the U.S. government's official web portal to all federal, state and local government web resources and services.